| time (UTC) | temp F | wind direction | speed knots | gust knots | rain 1hr in | rain 24hr in | rain mn in | humidity % | barometer mb |
| 20260506025623 | 66 | 211 | 2.6 | 8.7 | 0.00 | 0.00 | 0.00 | 73 | 1016.0 |
| 20260506025119 | 66 | 185 | 0.9 | 3.5 | 0.00 | 0.00 | 0.00 | 73 | 1016.0 |
| 20260506024617 | 66 | 128 | 3.5 | 7.0 | 0.00 | 0.00 | 0.00 | 72 | 1015.9 |
| 20260506024113 | 66 | 134 | 7.8 | 11.3 | 0.00 | 0.00 | 0.00 | 72 | 1015.8 |
| 20260506023609 | 67 | 175 | 3.5 | 6.1 | 0.00 | 0.00 | 0.00 | 71 | 1015.9 |
| 20260506023107 | 67 | 169 | 3.5 | 5.2 | 0.00 | 0.00 | 0.00 | 71 | 1015.6 |
| 20260506022604 | 67 | 211 | 4.3 | 6.1 | 0.00 | 0.00 | 0.00 | 70 | 1015.8 |
| 20260506022101 | 67 | 124 | 3.5 | 6.1 | 0.00 | 0.00 | 0.00 | 70 | 1015.8 |
| 20260506021559 | 68 | 152 | 5.2 | 7.0 | 0.00 | 0.00 | 0.00 | 69 | 1015.5 |
| 20260506021056 | 68 | 198 | 2.6 | 7.8 | 0.00 | 0.00 | 0.00 | 68 | 1015.5 |
| 20260506020553 | 68 | 195 | 3.5 | 7.0 | 0.00 | 0.00 | 0.00 | 68 | 1015.4 |
| 20260506020050 | 68 | 108 | 4.3 | 8.7 | 0.00 | 0.00 | 0.00 | 67 | 1015.4 |
| 20260506015548 | 68 | 184 | 3.5 | 7.8 | 0.00 | 0.00 | 0.00 | 67 | 1015.3 |
| 20260506015044 | 68 | 157 | 3.5 | 7.8 | 0.00 | 0.00 | 0.00 | 66 | 1015.2 |
| 20260506014542 | 69 | 153 | 2.6 | 5.2 | 0.00 | 0.00 | 0.00 | 65 | 1015.2 |
| 20260506014038 | 69 | 178 | 5.2 | 8.7 | 0.00 | 0.00 | 0.00 | 65 | 1015.0 |
| 20260506013536 | 69 | 156 | 3.5 | 13.0 | 0.00 | 0.00 | 0.00 | 65 | 1015.1 |
| 20260506013032 | 69 | 145 | 1.7 | 6.1 | 0.00 | 0.00 | 0.00 | 64 | 1015.0 |
| 20260506012529 | 69 | 98 | 7.8 | 11.3 | 0.00 | 0.00 | 0.00 | 64 | 1015.0 |
| 20260506012026 | 69 | 168 | 5.2 | 7.0 | 0.00 | 0.00 | 0.00 | 63 | 1015.0 |
| 20260506011523 | 70 | 209 | 3.5 | 8.7 | 0.00 | 0.00 | 0.00 | 63 | 1014.8 |
| 20260506011019 | 70 | 166 | 5.2 | 7.8 | 0.00 | 0.00 | 0.00 | 63 | 1014.9 |
| 20260506010519 | 70 | 144 | 3.5 | 7.8 | 0.00 | 0.00 | 0.00 | 62 | 1014.9 |
| 20260506010015 | 70 | 193 | 4.3 | 8.7 | 0.00 | 0.00 | 0.00 | 62 | 1014.7 |
| 20260506005512 | 70 | 150 | 3.5 | 11.3 | 0.00 | 0.00 | 0.00 | 62 | 1014.6 |
| 20260506005008 | 71 | 134 | 1.7 | 7.8 | 0.00 | 0.00 | 0.00 | 61 | 1014.6 |
| 20260506004506 | 71 | 156 | 2.6 | 7.0 | 0.00 | 0.00 | 0.00 | 61 | 1014.5 |
| 20260506004002 | 71 | 153 | 7.0 | 8.7 | 0.00 | 0.00 | 0.00 | 60 | 1014.4 |
| 20260506003458 | 71 | 181 | 2.6 | 8.7 | 0.00 | 0.00 | 0.00 | 60 | 1014.5 |
| 20260506002954 | 72 | 147 | 3.5 | 7.0 | 0.00 | 0.00 | 0.00 | 59 | 1014.5 |
| 20260506002451 | 72 | 166 | 5.2 | 8.7 | 0.00 | 0.00 | 0.00 | 58 | 1014.3 |
| 20260506001946 | 72 | 185 | 4.3 | 13.0 | 0.00 | 0.00 | 0.00 | 58 | 1014.2 |
| 20260506001443 | 72 | 164 | 5.2 | 7.8 | 0.00 | 0.00 | 0.00 | 57 | 1014.1 |
| 20260506000940 | 73 | 132 | 1.7 | 6.1 | 0.00 | 0.00 | 0.00 | 57 | 1014.1 |
| 20260506000438 | 73 | 173 | 3.5 | 7.8 | 0.00 | 0.00 | 0.00 | 56 | 1014.1 |
| 20260505235935 | 73 | 223 | 2.6 | 3.5 | 0.00 | 0.00 | 0.00 | 56 | 1014.0 |
| 20260505235433 | 73 | 137 | 7.0 | 8.7 | 0.00 | 0.00 | 0.00 | 55 | 1014.0 |
| 20260505234929 | 74 | 210 | 3.5 | 6.1 | 0.00 | 0.00 | 0.00 | 55 | 1013.9 |
| 20260505234427 | 74 | 160 | 3.5 | 6.1 | 0.00 | 0.00 | 0.00 | 55 | 1013.8 |
| 20260505233923 | 75 | 180 | 4.3 | 7.0 | 0.00 | 0.00 | 0.00 | 55 | 1013.8 |
| 20260505233421 | 75 | 179 | 4.3 | 6.1 | 0.00 | 0.00 | 0.00 | 54 | 1013.8 |
| 20260505232918 | 75 | 174 | 4.3 | 7.8 | 0.00 | 0.00 | 0.00 | 53 | 1013.7 |
| 20260505232416 | 75 | 176 | 7.0 | 7.8 | 0.00 | 0.00 | 0.00 | 53 | 1013.8 |
| 20260505231913 | 76 | 124 | 5.2 | 7.8 | 0.00 | 0.00 | 0.00 | 52 | 1013.8 |
| 20260505231410 | 76 | 136 | 0.9 | 5.2 | 0.00 | 0.00 | 0.00 | 52 | 1013.9 |
| 20260505230908 | 77 | 170 | 2.6 | 6.1 | 0.00 | 0.00 | 0.00 | 51 | 1013.7 |
| 20260505230406 | 77 | 131 | 7.0 | 8.7 | 0.00 | 0.00 | 0.00 | 50 | 1013.5 |
| 20260505225902 | 77 | 116 | 3.5 | 8.7 | 0.00 | 0.00 | 0.00 | 50 | 1013.7 |
| 20260505225359 | 78 | 198 | 6.1 | 7.8 | 0.00 | 0.00 | 0.00 | 49 | 1013.6 |
| 20260505224854 | 78 | 215 | 3.5 | 6.1 | 0.00 | 0.00 | 0.00 | 49 | 1013.7 |
| 20260505224352 | 78 | 146 | 5.2 | 7.0 | 0.00 | 0.00 | 0.00 | 49 | 1013.8 |
| 20260505223849 | 78 | 138 | 5.2 | 7.8 | 0.00 | 0.00 | 0.00 | 49 | 1013.8 |
| 20260505223346 | 78 | 109 | 4.3 | 6.1 | 0.00 | 0.00 | 0.00 | 50 | 1014.0 |
| 20260505222842 | 77 | 136 | 1.7 | 2.6 | 0.00 | 0.00 | 0.00 | 50 | 1014.2 |
| 20260505222338 | 78 | 117 | 3.5 | 5.2 | 0.00 | 0.00 | 0.00 | 49 | 1014.1 |
| 20260505221835 | 79 | 144 | 3.5 | 5.2 | 0.00 | 0.00 | 0.00 | 48 | 1014.0 |
| 20260505221332 | 79 | 210 | 6.1 | 7.8 | 0.00 | 0.00 | 0.00 | 48 | 1014.0 |
| 20260505220829 | 79 | 220 | 2.6 | 7.8 | 0.00 | 0.00 | 0.00 | 47 | 1014.1 |
| 20260505220326 | 79 | 189 | 2.6 | 8.7 | 0.00 | 0.00 | 0.00 | 47 | 1014.0 |
| 20260505215824 | 78 | 194 | 3.5 | 7.0 | 0.00 | 0.00 | 0.00 | 49 | 1014.2 |
| 20260505215322 | 78 | 152 | 2.6 | 8.7 | 0.00 | 0.00 | 0.00 | 49 | 1014.1 |
| 20260505214820 | 79 | 134 | 7.0 | 8.7 | 0.00 | 0.00 | 0.00 | 48 | 1014.0 |
| 20260505214317 | 80 | 114 | 2.6 | 6.1 | 0.00 | 0.00 | 0.00 | 46 | 1014.0 |
| 20260505213814 | 81 | 224 | 6.1 | 7.8 | 0.00 | 0.00 | 0.00 | 46 | 1013.9 |
| 20260505213312 | 80 | 141 | 4.3 | 7.0 | 0.00 | 0.00 | 0.00 | 46 | 1013.8 |
| 20260505212807 | 80 | 207 | 1.7 | 9.6 | 0.00 | 0.00 | 0.00 | 45 | 1013.8 |
| 20260505212306 | 80 | 149 | 4.3 | 8.7 | 0.00 | 0.00 | 0.00 | 45 | 1014.1 |
| 20260505211801 | 80 | 234 | 4.3 | 6.1 | 0.00 | 0.00 | 0.00 | 45 | 1014.0 |
| 20260505211259 | 80 | 198 | 5.2 | 9.6 | 0.00 | 0.00 | 0.00 | 45 | 1014.0 |
| 20260505210754 | 81 | 136 | 5.2 | 9.6 | 0.00 | 0.00 | 0.00 | 45 | 1014.0 |
| 20260505210252 | 80 | 172 | 1.7 | 7.8 | 0.00 | 0.00 | 0.00 | 46 | 1014.2 |
| 20260505205749 | 79 | 193 | 5.2 | 7.0 | 0.00 | 0.00 | 0.00 | 46 | 1014.2 |
| 20260505205247 | 80 | 179 | 5.2 | 7.8 | 0.00 | 0.00 | 0.00 | 46 | 1014.3 |
| 20260505204743 | 80 | 230 | 4.3 | 7.8 | 0.00 | 0.00 | 0.00 | 46 | 1014.1 |
| 20260505204241 | 80 | 230 | 6.1 | 8.7 | 0.00 | 0.00 | 0.00 | 46 | 1014.1 |
| 20260505203738 | 80 | 195 | 3.5 | 9.6 | 0.00 | 0.00 | 0.00 | 46 | 1014.1 |
| 20260505203235 | 79 | 186 | 7.0 | 11.3 | 0.00 | 0.00 | 0.00 | 47 | 1014.1 |
| 20260505202731 | 79 | 182 | 2.6 | 7.0 | 0.00 | 0.00 | 0.00 | 47 | 1014.1 |
| 20260505202227 | 80 | 193 | 7.0 | 7.8 | 0.00 | 0.00 | 0.00 | 46 | 1014.1 |
| 20260505201724 | 79 | 186 | 4.3 | 6.1 | 0.00 | 0.00 | 0.00 | 47 | 1014.2 |
| 20260505201222 | 78 | 172 | 5.2 | 6.1 | 0.00 | 0.00 | 0.00 | 48 | 1014.3 |
| 20260505200720 | 79 | 183 | 6.1 | 8.7 | 0.00 | 0.00 | 0.00 | 46 | 1014.2 |
| 20260505200216 | 81 | 137 | 3.5 | 9.6 | 0.00 | 0.00 | 0.00 | 46 | 1014.5 |
| 20260505195712 | 80 | 146 | 3.5 | 7.0 | 0.00 | 0.00 | 0.00 | 46 | 1014.4 |
| 20260505195209 | 79 | 174 | 4.3 | 9.6 | 0.00 | 0.00 | 0.00 | 47 | 1014.6 |
| 20260505194707 | 80 | 184 | 2.6 | 5.2 | 0.00 | 0.00 | 0.00 | 46 | 1014.6 |
| 20260505194203 | 80 | 178 | 1.7 | 8.7 | 0.00 | 0.00 | 0.00 | 46 | 1014.9 |
| 20260505193659 | 80 | 229 | 3.5 | 6.1 | 0.00 | 0.00 | 0.00 | 46 | 1014.7 |
| 20260505193156 | 81 | 196 | 3.5 | 5.2 | 0.00 | 0.00 | 0.00 | 45 | 1014.8 |
| 20260505192655 | 80 | 185 | 5.2 | 9.6 | 0.00 | 0.00 | 0.00 | 45 | 1014.9 |
| 20260505192152 | 79 | 183 | 4.3 | 7.0 | 0.00 | 0.00 | 0.00 | 46 | 1015.1 |
| 20260505191650 | 79 | 111 | 1.7 | 7.0 | 0.00 | 0.00 | 0.00 | 45 | 1015.1 |
| 20260505191148 | 80 | 224 | 3.5 | 7.0 | 0.00 | 0.00 | 0.00 | 45 | 1015.4 |
| 20260505190644 | 80 | 152 | 2.6 | 8.7 | 0.00 | 0.00 | 0.00 | 45 | 1015.4 |
| 20260505190144 | 80 | 214 | 5.2 | 7.8 | 0.00 | 0.00 | 0.00 | 45 | 1015.4 |
| 20260505185641 | 80 | 192 | 5.2 | 9.6 | 0.00 | 0.00 | 0.00 | 45 | 1015.4 |
| 20260505185137 | 80 | 144 | 3.5 | 3.5 | 0.00 | 0.00 | 0.00 | 46 | 1015.4 |
| 20260505184634 | 80 | 84 | 3.5 | 9.6 | 0.00 | 0.00 | 0.00 | 46 | 1015.3 |
| 20260505184131 | 79 | 128 | 5.2 | 7.0 | 0.00 | 0.00 | 0.00 | 46 | 1015.4 |
| 20260505183627 | 79 | 181 | 2.6 | 7.8 | 0.00 | 0.00 | 0.00 | 46 | 1015.8 |
| 20260505183125 | 79 | 238 | 4.3 | 9.6 | 0.00 | 0.00 | 0.00 | 46 | 1015.9 |
| 20260505182621 | 80 | 234 | 8.7 | 9.6 | 0.00 | 0.00 | 0.00 | 45 | 1015.8 |
| 20260505182118 | 80 | 198 | 4.3 | 7.8 | 0.00 | 0.00 | 0.00 | 46 | 1015.8 |
| 20260505181615 | 79 | 228 | 3.5 | 6.1 | 0.00 | 0.00 | 0.00 | 46 | 1015.8 |
| 20260505181112 | 80 | 184 | 5.2 | 7.8 | 0.00 | 0.00 | 0.00 | 46 | 1016.1 |
| 20260505180608 | 79 | 158 | 3.5 | 9.6 | 0.00 | 0.00 | 0.00 | 47 | 1016.1 |
| 20260505180106 | 78 | 158 | 5.2 | 8.7 | 0.00 | 0.00 | 0.00 | 48 | 1016.2 |
| 20260505175601 | 79 | 197 | 7.0 | 8.7 | 0.00 | 0.00 | 0.00 | 46 | 1016.1 |
| 20260505175058 | 79 | 187 | 3.5 | 7.0 | 0.00 | 0.00 | 0.00 | 47 | 1016.0 |
| 20260505174555 | 79 | 213 | 4.3 | 7.8 | 0.00 | 0.00 | 0.00 | 48 | 1016.2 |
| 20260505174051 | 79 | 236 | 7.8 | 12.2 | 0.00 | 0.00 | 0.00 | 48 | 1016.0 |
| 20260505173548 | 79 | 117 | 9.6 | 12.2 | 0.00 | 0.00 | 0.00 | 48 | 1015.9 |
| 20260505173044 | 79 | 160 | 5.2 | 7.8 | 0.00 | 0.00 | 0.00 | 49 | 1016.0 |
| 20260505172542 | 78 | 183 | 2.6 | 3.5 | 0.00 | 0.00 | 0.00 | 50 | 1016.0 |
| 20260505172038 | 79 | 211 | 5.2 | 13.0 | 0.00 | 0.00 | 0.00 | 50 | 1016.2 |
| 20260505171533 | 78 | 239 | 3.5 | 5.2 | 0.00 | 0.00 | 0.00 | 51 | 1016.3 |
| 20260505171031 | 78 | 191 | 3.5 | 7.8 | 0.00 | 0.00 | 0.00 | 52 | 1016.4 |
| 20260505170527 | 78 | 221 | 4.3 | 8.7 | 0.00 | 0.00 | 0.00 | 51 | 1016.1 |
| 20260505170024 | 78 | 235 | 6.1 | 8.7 | 0.00 | 0.00 | 0.00 | 50 | 1016.3 |
| 20260505165519 | 77 | 241 | 6.1 | 8.7 | 0.00 | 0.00 | 0.00 | 52 | 1016.4 |
| 20260505165015 | 77 | 173 | 7.8 | 12.2 | 0.00 | 0.00 | 0.00 | 52 | 1016.5 |
| 20260505164511 | 77 | 137 | 4.3 | 8.7 | 0.00 | 0.00 | 0.00 | 53 | 1016.5 |
| 20260505164009 | 77 | 215 | 4.3 | 6.1 | 0.00 | 0.00 | 0.00 | 53 | 1016.5 |
| 20260505163507 | 77 | 152 | 5.2 | 7.0 | 0.00 | 0.00 | 0.00 | 54 | 1016.4 |
| 20260505163003 | 77 | 136 | 6.1 | 8.7 | 0.00 | 0.00 | 0.00 | 54 | 1016.3 |
| 20260505162457 | 77 | 199 | 6.1 | 12.2 | 0.00 | 0.00 | 0.00 | 53 | 1016.5 |
| 20260505161954 | 76 | 160 | 7.0 | 13.0 | 0.00 | 0.00 | 0.00 | 54 | 1016.5 |
| 20260505161450 | 76 | 141 | 3.5 | 7.8 | 0.00 | 0.00 | 0.00 | 54 | 1016.5 |
| 20260505160948 | 75 | 201 | 2.6 | 7.0 | 0.00 | 0.00 | 0.00 | 55 | 1016.8 |
| 20260505160446 | 75 | 173 | 4.3 | 7.8 | 0.00 | 0.00 | 0.00 | 56 | 1017.0 |
| 20260505152922 | 74 | 193 | 3.5 | 3.5 | 0.00 | 0.00 | 0.00 | 61 | 1017.0 |
| 20260505152420 | 74 | 185 | 3.5 | 6.1 | 0.00 | 0.00 | 0.00 | 61 | 1017.1 |
| 20260505151919 | 74 | 190 | 3.5 | 7.0 | 0.00 | 0.00 | 0.00 | 61 | 1017.3 |
| 20260505151416 | 73 | 199 | 4.3 | 6.1 | 0.00 | 0.00 | 0.00 | 62 | 1017.1 |
| 20260505150914 | 74 | 203 | 5.2 | 11.3 | 0.00 | 0.00 | 0.00 | 61 | 1017.1 |
| 20260505150411 | 72 | 190 | 3.5 | 6.1 | 0.00 | 0.00 | 0.00 | 63 | 1017.2 |
| 20260505140340 | 69 | 171 | 3.5 | 9.6 | 0.00 | 0.00 | 0.00 | 68 | 1017.3 |
| 20260505130304 | 66 | 175 | 2.6 | 7.0 | 0.00 | 0.00 | 0.00 | 74 | 1017.2 |
| 20260505124754 | 65 | 199 | 4.3 | 5.2 | 0.00 | 0.00 | 0.00 | 77 | 1017.2 |
| 20260505124251 | 64 | 224 | 2.6 | 6.1 | 0.00 | 0.00 | 0.00 | 78 | 1017.1 |
| 20260505123746 | 64 | 214 | 3.5 | 5.2 | 0.00 | 0.00 | 0.00 | 78 | 1017.0 |
| 20260505123243 | 63 | 142 | 3.5 | 3.5 | 0.00 | 0.00 | 0.00 | 79 | 1017.2 |
| 20260505122740 | 63 | 183 | 3.5 | 3.5 | 0.00 | 0.00 | 0.00 | 81 | 1017.0 |
| 20260505122237 | 62 | 195 | 1.7 | 2.6 | 0.00 | 0.00 | 0.00 | 82 | 1017.0 |
| 20260505121734 | 61 | 201 | 3.5 | 7.0 | 0.00 | 0.00 | 0.00 | 83 | 1017.2 |
| 20260505121230 | 60 | 154 | 3.5 | 5.2 | 0.00 | 0.00 | 0.00 | 85 | 1017.0 |
| 20260505120727 | 59 | 143 | 1.7 | 2.6 | 0.00 | 0.00 | 0.00 | 85 | 1017.0 |
| 20260505120223 | 58 | 183 | 1.7 | 2.6 | 0.00 | 0.00 | 0.00 | 86 | 1017.0 |
| 20260505115721 | 58 | 182 | 1.7 | 2.6 | 0.00 | 0.00 | 0.00 | 87 | 1016.9 |
| 20260505115219 | 57 | 132 | 0.9 | 0.9 | 0.00 | 0.00 | 0.00 | 87 | 1017.0 |
| 20260505114717 | 57 | 136 | 0.0 | 1.7 | 0.00 | 0.00 | 0.00 | 88 | 1016.9 |
| 20260505114212 | 56 | 135 | 0.9 | 2.6 | 0.00 | 0.00 | 0.00 | 89 | 1016.8 |
| 20260505113709 | 56 | 121 | 0.9 | 1.7 | 0.00 | 0.00 | 0.00 | 89 | 1016.8 |
| 20260505113206 | 55 | 137 | 0.0 | 0.9 | 0.00 | 0.00 | 0.00 | 90 | 1016.7 |
| 20260505112702 | 55 | 134 | 0.9 | 0.9 | 0.00 | 0.00 | 0.00 | 90 | 1016.7 |
| 20260505112200 | 54 | 133 | 0.0 | 1.7 | 0.00 | 0.00 | 0.00 | 90 | 1016.6 |
| 20260505111659 | 53 | 132 | 0.0 | 0.0 | 0.00 | 0.00 | 0.00 | 90 | 1016.8 |
| 20260505111155 | 52 | 135 | 0.0 | 0.0 | 0.00 | 0.00 | 0.00 | 90 | 1016.6 |
| 20260505110652 | 52 | 125 | 0.0 | 0.0 | 0.00 | 0.00 | 0.00 | 90 | 1016.6 |
| 20260505110149 | 51 | 128 | 0.0 | 0.0 | 0.00 | 0.00 | 0.00 | 89 | 1016.6 |
| 20260505102125 | 52 | 119 | 0.0 | 0.0 | 0.00 | 0.00 | 0.00 | 87 | 1016.0 |
| 20260505101624 | 53 | 119 | 0.0 | 0.0 | 0.00 | 0.00 | 0.00 | 87 | 1015.8 |
| 20260505101119 | 53 | 157 | 0.9 | 1.7 | 0.00 | 0.00 | 0.00 | 87 | 1015.9 |
| 20260505100616 | 53 | 124 | 0.0 | 0.0 | 0.00 | 0.00 | 0.00 | 87 | 1015.9 |
| 20260505100113 | 53 | 130 | 0.0 | 0.0 | 0.00 | 0.00 | 0.00 | 87 | 1015.9 |
| 20260505095609 | 53 | 131 | 0.0 | 0.0 | 0.00 | 0.00 | 0.00 | 86 | 1015.8 |
| 20260505095106 | 53 | 158 | 0.9 | 0.9 | 0.00 | 0.00 | 0.00 | 86 | 1015.8 |
| 20260505094602 | 52 | 123 | 0.0 | 0.0 | 0.00 | 0.00 | 0.00 | 86 | 1015.6 |
| 20260505094058 | 52 | 125 | 0.0 | 0.0 | 0.00 | 0.00 | 0.00 | 85 | 1015.6 |
| 20260505093555 | 52 | 125 | 0.0 | 0.0 | 0.00 | 0.00 | 0.00 | 85 | 1015.8 |
| 20260505093052 | 52 | 128 | 0.0 | 0.0 | 0.00 | 0.00 | 0.00 | 84 | 1015.8 |
| 20260505092549 | 53 | 128 | 0.0 | 0.0 | 0.00 | 0.00 | 0.00 | 84 | 1015.5 |
| 20260505092048 | 53 | 124 | 0.0 | 0.0 | 0.00 | 0.00 | 0.00 | 83 | 1015.6 |
| 20260505091544 | 53 | 125 | 0.0 | 0.0 | 0.00 | 0.00 | 0.00 | 83 | 1015.6 |
| 20260505091043 | 54 | 130 | 0.0 | 0.0 | 0.00 | 0.00 | 0.00 | 82 | 1015.5 |
| 20260505090540 | 54 | 124 | 0.0 | 0.0 | 0.00 | 0.00 | 0.00 | 82 | 1015.5 |
| 20260505090038 | 54 | 124 | 0.0 | 0.0 | 0.00 | 0.00 | 0.00 | 81 | 1015.4 |
| 20260505085536 | 55 | 128 | 0.0 | 0.0 | 0.00 | 0.00 | 0.00 | 81 | 1015.5 |
| 20260505085034 | 55 | 129 | 0.0 | 0.0 | 0.00 | 0.00 | 0.00 | 81 | 1015.4 |
| 20260505084531 | 56 | 142 | 0.0 | 0.0 | 0.00 | 0.00 | 0.00 | 81 | 1015.4 |
| 20260505084029 | 56 | 137 | 0.9 | 0.9 | 0.00 | 0.00 | 0.00 | 80 | 1015.3 |
| 20260505083526 | 56 | 130 | 0.0 | 0.0 | 0.00 | 0.00 | 0.00 | 80 | 1015.3 |
| 20260505083023 | 56 | 132 | 0.0 | 1.7 | 0.00 | 0.00 | 0.00 | 80 | 1015.3 |
| 20260505082518 | 56 | 161 | 0.9 | 0.9 | 0.00 | 0.00 | 0.00 | 80 | 1015.5 |
| 20260505082015 | 56 | 138 | 0.0 | 0.9 | 0.00 | 0.00 | 0.00 | 79 | 1015.2 |
| 20260505081512 | 56 | 124 | 0.0 | 0.0 | 0.00 | 0.00 | 0.00 | 79 | 1015.2 |
| 20260505081009 | 57 | 130 | 0.9 | 0.9 | 0.00 | 0.00 | 0.00 | 79 | 1015.4 |
| 20260505080505 | 57 | 154 | 1.7 | 2.6 | 0.00 | 0.00 | 0.00 | 79 | 1015.1 |
| 20260505080001 | 57 | 134 | 0.9 | 0.9 | 0.00 | 0.00 | 0.00 | 78 | 1015.1 |
| 20260505075458 | 57 | 121 | 0.0 | 0.9 | 0.00 | 0.00 | 0.00 | 78 | 1015.2 |
| 20260505074955 | 57 | 128 | 0.9 | 0.9 | 0.00 | 0.00 | 0.00 | 78 | 1015.0 |
| 20260505074452 | 57 | 119 | 0.9 | 2.6 | 0.00 | 0.00 | 0.00 | 77 | 1015.2 |
| 20260505073949 | 58 | 131 | 0.0 | 1.7 | 0.00 | 0.00 | 0.00 | 77 | 1015.1 |
| 20260505073447 | 58 | 131 | 0.0 | 0.9 | 0.00 | 0.00 | 0.00 | 76 | 1015.1 |
| 20260505072944 | 58 | 134 | 0.9 | 1.7 | 0.00 | 0.00 | 0.00 | 76 | 1015.2 |
| 20260505072440 | 58 | 147 | 0.0 | 1.7 | 0.00 | 0.00 | 0.00 | 76 | 1015.2 |
| 20260505071936 | 59 | 157 | 0.9 | 2.6 | 0.00 | 0.00 | 0.00 | 75 | 1015.1 |
| 20260505071432 | 59 | 166 | 1.7 | 2.6 | 0.00 | 0.00 | 0.00 | 75 | 1015.4 |
| 20260505070931 | 59 | 108 | 0.0 | 1.7 | 0.00 | 0.00 | 0.00 | 75 | 1015.2 |
| 20260505070427 | 59 | 133 | 0.0 | 1.7 | 0.00 | 0.00 | 0.00 | 75 | 1015.0 |
| 20260505065922 | 59 | 129 | 0.9 | 2.6 | 0.00 | 0.00 | 0.00 | 75 | 1015.1 |
| 20260505065419 | 59 | 210 | 1.7 | 2.6 | 0.00 | 0.00 | 0.00 | 75 | 1015.1 |
| 20260505064916 | 59 | 121 | 0.9 | 2.6 | 0.00 | 0.00 | 0.00 | 74 | 1015.3 |
| 20260505064413 | 59 | 162 | 1.7 | 2.6 | 0.00 | 0.00 | 0.00 | 74 | 1015.2 |
| 20260505063912 | 59 | 133 | 0.9 | 2.6 | 0.00 | 0.00 | 0.00 | 74 | 1015.0 |
| 20260505063407 | 59 | 143 | 1.7 | 3.5 | 0.00 | 0.00 | 0.00 | 74 | 1015.1 |
| 20260505062904 | 59 | 149 | 0.9 | 1.7 | 0.00 | 0.00 | 0.00 | 73 | 1015.1 |
| 20260505062401 | 59 | 145 | 0.9 | 2.6 | 0.00 | 0.00 | 0.00 | 73 | 1015.1 |
| 20260505061858 | 59 | 119 | 1.7 | 3.5 | 0.00 | 0.00 | 0.00 | 73 | 1015.1 |
| 20260505061356 | 60 | 130 | 0.0 | 1.7 | 0.00 | 0.00 | 0.00 | 73 | 1015.2 |
| 20260505060854 | 60 | 135 | 1.7 | 2.6 | 0.00 | 0.00 | 0.00 | 72 | 1014.8 |
| 20260505060350 | 60 | 141 | 0.9 | 1.7 | 0.00 | 0.00 | 0.00 | 72 | 1015.3 |
| 20260505055846 | 60 | 153 | 1.7 | 1.7 | 0.00 | 0.00 | 0.00 | 71 | 1015.4 |
| 20260505055342 | 60 | 146 | 0.0 | 1.7 | 0.00 | 0.00 | 0.00 | 71 | 1015.4 |
| 20260505054840 | 60 | 175 | 1.7 | 1.7 | 0.00 | 0.00 | 0.00 | 71 | 1015.2 |
| 20260505054337 | 60 | 121 | 0.0 | 2.6 | 0.00 | 0.00 | 0.00 | 71 | 1015.2 |
| 20260505053835 | 60 | 128 | 0.0 | 1.7 | 0.00 | 0.00 | 0.00 | 70 | 1015.3 |
| 20260505053332 | 61 | 178 | 1.7 | 2.6 | 0.00 | 0.00 | 0.00 | 70 | 1015.5 |
| 20260505052828 | 61 | 118 | 0.9 | 3.5 | 0.00 | 0.00 | 0.00 | 70 | 1015.4 |
| 20260505052325 | 61 | 151 | 1.7 | 1.7 | 0.00 | 0.00 | 0.00 | 69 | 1015.6 |
| 20260505051823 | 61 | 133 | 0.9 | 1.7 | 0.00 | 0.00 | 0.00 | 69 | 1015.3 |
| 20260505051320 | 61 | 130 | 0.0 | 2.6 | 0.00 | 0.00 | 0.00 | 68 | 1015.5 |
| 20260505050818 | 62 | 179 | 1.7 | 5.2 | 0.00 | 0.00 | 0.00 | 68 | 1015.5 |
| 20260505050317 | 62 | 140 | 1.7 | 5.2 | 0.00 | 0.00 | 0.00 | 68 | 1015.6 |
| 20260505041746 | 63 | 135 | 0.9 | 3.5 | 0.00 | 0.00 | 0.00 | 66 | 1015.4 |
| 20260505041243 | 63 | 163 | 2.6 | 5.2 | 0.00 | 0.00 | 0.00 | 66 | 1015.4 |
| 20260505040741 | 63 | 118 | 2.6 | 5.2 | 0.00 | 0.00 | 0.00 | 66 | 1015.4 |
| 20260505040238 | 63 | 169 | 2.6 | 7.0 | 0.00 | 0.00 | 0.00 | 66 | 1015.5 |
| 20260505035735 | 63 | 141 | 3.5 | 7.0 | 0.00 | 0.00 | 0.00 | 66 | 1015.5 |
| 20260505035230 | 64 | 128 | 4.3 | 7.8 | 0.00 | 0.00 | 0.00 | 65 | 1015.6 |
| 20260505034728 | 64 | 166 | 7.0 | 8.7 | 0.00 | 0.00 | 0.00 | 65 | 1015.4 |
| 20260505034224 | 64 | 149 | 0.9 | 7.0 | 0.00 | 0.00 | 0.00 | 65 | 1015.6 |
| 20260505033721 | 64 | 220 | 1.7 | 3.5 | 0.00 | 0.00 | 0.00 | 65 | 1015.5 |
| 20260505033219 | 64 | 191 | 3.5 | 5.2 | 0.00 | 0.00 | 0.00 | 64 | 1015.6 |
| 20260505032717 | 64 | 151 | 2.6 | 7.0 | 0.00 | 0.00 | 0.00 | 64 | 1015.4 |
| 20260505032212 | 64 | 192 | 2.6 | 7.0 | 0.00 | 0.00 | 0.00 | 64 | 1015.3 |
| 20260505031710 | 64 | 133 | 2.6 | 6.1 | 0.00 | 0.00 | 0.00 | 64 | 1015.5 |
| 20260505031206 | 64 | 154 | 1.7 | 5.2 | 0.00 | 0.00 | 0.00 | 64 | 1015.5 |
| 20260505030703 | 64 | 144 | 3.5 | 7.0 | 0.00 | 0.00 | 0.00 | 64 | 1015.4 |
| 20260505030159 | 64 | 153 | 0.9 | 7.0 | 0.00 | 0.00 | 0.00 | 63 | 1015.4 |
| 20260505025655 | 65 | 203 | 2.6 | 5.2 | 0.00 | 0.00 | 0.00 | 63 | 1015.5 |